Theta_e
344 341 345 340 319 318 311 314 323 321 323 329 331 329 324 327 322 315 343 345 345 344 346 346 350 351 351 350 349 348 347 345 346 346 346 345 345 346 346 347 348 348 349 351 353 353 353 354 354
342 344 342 327 315 308 310 318 318 323 328 330 331 328 326 322 333 335 338 346 347 346 346 346 349 348 346 344 343 343 343 346 346 345 345 345 346 346 346 346 346 346 347 347 347 348 350 350 351
346 345 327 318 313 309 310 319 321 325 328 327 327 330 328 326 335 337 344 347 345 346 347 345 345 343 342 342 341 340 342 342 340 341 341 341 342 343 344 345 345 345 345 344 345 345 345 345 346
339 332 329 315 312 314 318 323 324 324 324 330 329 325 333 339 338 342 345 346 342 340 340 341 343 342 341 340 340 338 339 337 338 337 337 337 336 337 338 337 338 340 343 344 344 343 343 343 342
333 328 317 314 313 319 322 325 325 322 324 326 329 324 327 337 343 344 341 339 337 336 336 337 341 340 338 337 336 337 336 335 334 336 335 335 334 333 333 333 333 333 334 335 337 339 342 342 342
323 325 313 310 315 320 323 324 325 321 325 326 326 326 328 340 340 340 338 336 335 331 331 332 338 338 336 335 334 333 334 334 334 334 332 331 330 329 329 330 330 330 330 331 331 332 335 338 341
323 319 314 315 314 317 320 325 322 324 322 326 331 324 329 334 337 338 336 335 334 331 331 334 334 336 336 334 333 332 331 332 332 330 328 328 327 326 325 329 327 326 327 327 328 329 329 331 335
326 320 316 316 313 314 323 324 326 327 325 334 335 324 323 332 334 333 330 329 328 328 326 326 328 328 332 330 332 331 328 328 329 326 326 328 329 330 327 328 325 325 325 325 325 327 327 328 329
328 316 312 315 315 317 324 322 329 330 328 333 335 332 334 334 333 328 326 325 324 324 323 324 324 327 330 324 329 331 330 329 328 330 328 332 328 328 325 327 322 322 325 326 325 326 327 327 328
321 316 313 322 323 320 325 325 326 325 326 329 330 334 335 331 327 324 321 323 323 324 324 325 329 327 326 322 329 332 328 330 331 329 330 329 330 330 325 329 328 326 327 329 329 328 328 328 323
322 317 323 323 325 327 324 325 328 326 322 328 327 329 330 326 324 321 323 322 323 324 323 321 330 326 323 323 326 328 331 331 331 331 330 331 327 331 327 324 324 327 329 325 325 325 325 324 322
319 324 325 325 327 325 324 328 325 327 327 334 333 332 327 322 320 322 320 321 322 326 324 322 323 324 330 325 324 325 325 327 325 326 330 329 325 328 327 325 325 326 325 325 325 323 326 325 324
319 323 326 327 327 327 328 326 325 326 332 334 332 327 323 320 322 322 323 324 323 323 323 325 328 329 329 329 328 329 327 327 328 329 326 326 326 327 325 326 326 326 325 323 323 323 325 323 324
322 324 325 326 326 327 325 324 326 327 332 331 327 322 322 322 319 319 323 321 322 322 323 328 328 334 333 333 331 329 331 329 331 331 327 326 326 327 324 323 324 325 324 323 323 322 324 323 322
323 315 319 324 325 325 327 320 321 327 328 326 324 324 322 320 321 323 322 321 322 322 328 332 330 332 335 333 332 330 328 324 327 331 329 326 328 327 328 322 324 323 326 325 325 325 324 323 322
317 314 306 314 321 326 323 314 322 327 325 323 324 323 323 323 321 322 321 323 326 327 332 331 326 331 333 335 332 331 331 331 329 329 329 327 327 327 327 323 322 324 325 323 324 324 321 320 320
314 310 310 312 320 326 322 316 323 326 325 323 323 323 322 321 321 323 325 324 327 330 333 328 332 330 333 333 334 332 333 331 332 330 329 326 327 325 324 324 323 326 323 322 323 323 322 319 319
307 308 312 312 319 320 317 318 322 325 324 321 322 323 321 321 322 326 327 328 330 330 334 335 332 329 327 327 332 330 329 331 332 330 328 328 327 325 324 322 326 326 323 320 324 323 322 321 320
312 312 309 313 315 315 314 318 320 322 322 321 322 323 321 321 324 328 329 330 327 331 333 334 328 328 330 330 330 328 323 326 328 327 328 328 327 324 328 321 321 323 323 320 323 323 321 319 321
314 311 309 312 318 317 314 315 320 321 321 321 321 323 322 322 323 327 330 331 330 331 334 330 330 328 330 333 330 331 329 326 328 328 329 329 326 324 324 324 323 323 321 322 323 323 319 319 322
310 310 310 309 313 318 314 313 313 319 321 320 320 323 323 320 322 324 326 330 330 332 331 331 332 330 332 333 333 331 330 327 328 325 326 325 327 326 324 325 321 321 323 319 323 321 320 317 319
309 314 313 311 308 302 314 301 310 314 315 316 317 319 320 322 320 322 323 324 328 329 333 330 331 327 332 329 326 326 324 319 321 325 326 328 328 326 326 326 325 322 323 322 322 324 322 320 316
310 315 313 312 309 308 308 304 307 312 309 313 316 316 318 320 321 322 324 324 326 327 329 331 323 322 325 326 327 323 322 324 326 326 326 328 328 326 324 325 324 323 321 324 321 322 322 322 318
318 315 314 313 309 301 307 302 304 307 310 312 314 315 316 316 319 320 324 327 326 328 326 327 322 319 318 320 324 327 324 326 322 323 322 322 322 321 324 325 324 323 322 322 322 324 321 321 321
316 311 301 299 297 298 309 305 304 311 313 313 313 313 314 316 317 318 317 319 322 322 325 324 325 327 322 324 327 326 323 324 323 323 321 321 321 323 324 324 322 321 321 322 324 322 321 320 320
311 309 301 294 296 298 306 300 302 313 315 315 315 314 315 316 317 317 318 319 319 320 321 320 322 322 329 328 324 326 323 323 321 321 323 323 322 321 324 323 323 320 321 322 322 322 321 321 320
309 304 309 303 303 298 302 304 310 312 311 312 312 313 313 314 316 316 317 317 316 317 318 319 319 321 322 325 324 321 319 321 319 323 321 321 325 322 318 322 319 320 322 321 323 319 320 321 321
310 312 302 303 294 293 299 302 300 305 308 309 310 312 313 314 315 314 312 313 315 315 315 319 319 318 319 325 325 321 321 322 325 324 321 318 322 321 322 324 320 319 321 323 322 318 320 321 321
308 303 306 307 303 296 294 298 310 309 310 309 310 312 312 313 311 309 308 311 312 314 313 317 316 315 316 319 320 322 322 319 322 323 322 321 318 318 320 321 322 321 317 322 322 320 319 317 318
309 306 307 300 299 302 298 299 312 312 312 312 311 311 312 311 309 309 309 311 312 311 312 314 316 314 315 316 318 320 321 321 321 321 321 322 320 322 316 319 319 320 318 319 318 319 317 318 317
Wind_Speed
7 9 8 7 5 3 5 13 20 17 16 15 20 16 17 15 9 9 7 13 13 10 7 11 14 14 14 14 14 13 13 11 11 12 12 12 12 12 12 12 12 13 13 14 14 11 10 10 9
10 14 9 4 6 4 6 20 19 11 11 15 16 19 18 18 18 12 8 13 14 11 8 8 15 13 13 14 14 11 10 11 12 11 12 12 11 11 12 11 11 11 11 10 11 10 10 9 8
13 12 8 4 3 3 11 20 15 12 9 6 18 16 10 4 13 6 13 15 15 13 10 11 15 14 14 13 11 9 9 10 10 11 11 11 11 11 11 12 11 10 9 8 8 8 7 7 6
2 7 3 1 9 7 14 17 19 9 8 14 15 14 9 7 7 11 16 17 14 14 13 13 14 13 11 10 9 8 8 8 8 8 9 9 10 10 10 10 9 9 9 9 9 7 6 5 5
6 5 2 5 11 17 12 10 10 8 15 13 18 12 9 13 19 16 15 14 15 15 12 11 12 11 10 9 8 6 6 5 5 6 6 7 7 7 7 8 8 8 8 8 7 7 7 6 6
6 2 3 5 12 14 13 10 14 12 15 20 21 14 8 9 12 15 11 13 16 15 13 10 11 10 9 10 9 6 5 5 5 5 4 3 3 3 4 6 7 8 9 8 9 8 8 9 9
7 4 11 12 9 15 10 23 2 13 13 18 12 15 10 11 11 15 18 14 14 14 14 12 11 10 10 9 10 7 4 4 4 3 2 3 3 2 2 6 6 7 8 9 8 9 9 9 10
7 3 11 18 11 13 6 12 7 11 12 9 10 8 10 14 11 10 12 12 11 12 11 9 7 5 11 9 10 9 5 3 2 2 5 8 8 9 6 7 6 8 8 9 10 11 11 11 11
10 5 5 10 12 13 10 11 5 3 13 20 14 19 21 16 12 13 14 11 10 9 9 11 9 9 4 5 7 8 7 6 4 7 7 9 3 2 9 2 2 3 7 9 9 10 12 13 14
9 1 5 18 13 13 9 10 7 10 5 11 17 18 17 15 13 12 10 9 8 8 7 9 7 8 7 7 6 0 4 5 2 3 6 4 5 5 5 8 8 8 11 14 11 12 13 12 7
11 6 14 13 8 14 10 11 4 14 2 13 19 16 12 14 13 11 11 9 9 6 6 6 7 6 10 7 4 2 2 2 4 5 2 4 4 2 4 4 4 4 6 2 5 5 2 7 6
6 9 12 9 7 4 13 13 11 14 13 16 16 17 14 14 11 10 9 8 5 5 5 5 8 8 7 7 5 6 4 3 4 4 3 4 4 3 4 3 4 3 3 5 5 4 5 5 6
8 5 9 8 7 9 7 13 12 12 15 15 17 14 14 13 10 9 4 4 5 4 3 5 7 5 5 5 5 3 3 3 3 4 7 3 4 4 5 4 4 3 3 4 5 6 4 5 6
11 6 7 5 9 9 13 12 10 11 19 17 16 15 12 12 10 7 9 5 5 4 7 6 6 4 3 3 4 4 3 5 3 1 4 3 2 3 5 5 4 4 5 4 4 5 4 5 5
30 22 23 17 6 6 7 10 11 13 16 16 13 12 11 12 13 12 9 6 7 8 11 3 4 4 1 4 5 4 4 5 5 1 4 5 1 4 3 6 5 3 3 6 6 5 5 4 5
12 12 6 21 22 7 4 12 13 15 14 13 13 11 10 9 8 11 10 10 10 11 10 7 3 2 4 2 5 3 3 2 4 3 3 2 3 4 3 5 5 3 4 6 5 4 5 6 7
14 18 24 15 19 9 10 13 13 12 12 12 11 11 12 11 13 13 14 14 13 12 11 6 7 6 1 4 4 6 3 4 3 3 2 6 3 3 4 4 5 4 4 6 3 3 4 5 7
15 12 13 13 9 11 9 13 11 10 10 14 12 11 11 13 17 17 18 16 13 13 11 9 3 4 5 4 6 6 4 3 1 2 5 3 3 5 5 4 5 4 4 5 3 4 4 7 8
12 11 13 13 11 7 6 17 15 14 8 6 11 15 14 10 13 16 15 13 10 9 12 8 7 6 4 6 3 3 4 4 3 4 4 1 3 6 3 3 5 2 3 5 4 3 5 7 5
20 12 6 16 23 7 9 10 8 14 11 6 7 9 7 8 5 11 14 14 15 15 10 9 9 7 5 6 4 2 2 4 3 3 1 2 4 6 5 3 3 4 5 6 6 2 4 5 3
14 25 7 13 16 16 4 8 11 12 11 8 7 11 8 5 7 8 12 14 8 9 9 13 9 8 10 11 5 4 4 4 1 2 3 5 2 6 4 5 4 4 5 5 3 4 5 4 7
11 14 18 20 18 15 8 7 5 5 8 5 8 4 6 3 8 8 4 6 6 7 7 3 7 7 12 7 8 6 3 5 4 2 3 1 4 6 5 5 4 5 4 5 4 3 3 4 6
15 16 18 19 14 19 1 8 1 3 7 7 7 9 9 8 9 5 6 5 6 6 4 8 6 7 11 10 11 8 6 3 2 3 5 4 5 6 8 4 5 5 6 3 6 5 4 4 4
11 14 19 21 12 11 10 10 10 5 8 10 6 9 10 11 13 10 9 5 4 2 2 6 10 10 10 10 16 8 8 5 5 4 4 5 4 3 5 4 5 5 6 5 5 5 6 5 4
4 15 13 13 10 7 15 4 6 9 9 9 7 6 8 12 7 3 7 9 6 3 4 3 6 8 14 14 9 11 11 8 7 6 5 4 2 1 3 5 5 5 4 5 5 6 6 6 5
14 13 9 17 12 16 7 8 2 10 7 7 4 8 7 12 13 12 11 10 11 13 12 13 13 13 3 6 8 15 3 4 4 8 3 4 2 3 5 4 4 6 4 3 5 5 4 4 4
10 11 16 11 15 16 6 7 10 7 6 6 5 5 13 9 7 6 7 7 7 7 9 5 8 7 7 6 2 6 7 6 8 3 3 6 3 4 7 5 4 6 5 4 4 6 4 4 4
3 6 8 6 10 13 3 6 8 11 5 2 6 8 4 4 7 7 8 10 9 10 9 9 9 9 11 4 2 5 4 6 6 5 4 7 3 7 7 3 5 6 5 5 4 6 4 5 5
8 10 9 7 9 11 6 3 11 7 5 7 10 8 8 7 9 11 9 9 9 8 9 7 8 11 10 8 8 5 5 6 9 5 6 6 4 10 8 7 7 7 4 6 5 6 4 6 5
5 6 6 6 9 12 11 6 8 10 11 8 7 1 8 8 9 9 9 10 10 12 11 11 9 10 11 11 7 7 8 10 9 7 7 7 8 5 5 9 7 7 4 6 5 3 4 4 5
Wind_Direction
206 218 232 26 68 179 308 41 68 36 69 75 64 71 78 50 34 104 117 104 103 98 84 84 77 73 79 83 76 72 71 67 77 77 73 68 63 60 59 55 51 49 49 45 45 49 49 49 45
238 225 219 124 83 267 109 102 94 120 91 94 86 81 77 67 83 102 97 106 108 104 98 107 106 102 93 85 77 75 77 74 77 73 75 72 71 68 64 56 51 46 44 49 46 43 42 42 41
266 328 23 65 74 336 69 63 73 99 94 60 82 69 53 48 62 83 117 116 114 115 114 104 103 99 92 87 84 84 87 82 77 75 71 70 68 65 62 57 47 48 43 36 37 29 32 35 29
10 11 355 36 170 207 81 67 64 28 71 109 104 80 89 12 74 119 132 135 125 112 105 103 99 94 90 87 85 81 84 78 82 78 78 74 66 63 63 61 58 45 36 32 24 16 11 10 360
45 12 15 213 209 82 84 83 103 158 86 90 84 80 82 78 113 129 136 121 119 115 118 107 109 111 110 98 80 74 71 70 57 70 63 65 69 64 58 52 42 38 30 27 21 8 354 344 332
104 91 80 281 113 117 123 92 99 52 90 108 105 99 86 135 135 138 140 142 125 118 122 131 138 135 127 116 99 71 58 62 63 56 59 63 79 81 75 53 46 26 9 360 352 349 345 340 329
110 216 189 172 101 93 66 133 238 92 81 68 94 95 135 157 150 156 163 145 131 137 153 161 156 159 149 133 112 92 66 61 53 45 6 287 282 256 135 99 50 14 344 329 323 320 316 315 314
166 115 192 114 147 96 101 78 83 35 86 98 136 135 153 147 154 134 127 124 90 70 52 74 73 137 171 166 140 135 157 160 183 237 261 275 268 260 230 176 34 353 327 307 303 295 292 290 288
158 264 49 84 99 114 132 113 60 127 91 61 47 119 138 145 146 107 92 84 77 73 78 60 34 360 63 40 136 160 177 172 205 230 260 274 248 334 10 81 245 289 281 285 283 277 277 280 277
358 63 293 81 99 127 146 107 132 96 113 114 96 115 138 145 99 101 105 99 71 71 83 99 65 9 6 48 318 345 162 115 93 45 332 337 339 296 308 285 252 261 261 278 254 260 260 273 263
197 197 74 58 107 125 118 106 111 130 112 136 132 136 141 126 110 123 114 107 77 39 18 55 87 70 4 17 338 0 60 85 162 129 30 351 330 345 342 318 12 323 298 322 310 321 270 7 330
109 54 92 99 80 99 130 108 74 55 67 103 134 136 140 125 136 112 106 107 75 350 326 39 72 46 39 5 11 344 23 347 14 30 117 13 341 7 346 358 321 333 317 323 0 337 348 339 316
24 59 99 128 112 83 95 55 98 89 83 106 117 128 134 145 136 91 133 123 115 223 253 284 74 46 36 41 341 340 10 30 344 318 72 17 344 6 329 327 280 288 351 357 356 319 352 306 285
200 208 117 132 130 147 136 138 162 117 115 116 125 134 140 140 150 175 156 184 219 205 247 237 122 116 24 27 323 319 93 288 246 270 87 12 18 21 307 320 327 305 31 351 299 290 285 281 288
33 32 5 336 217 141 167 153 105 137 129 131 129 142 155 167 193 187 200 188 198 221 245 164 232 150 110 59 320 329 37 335 295 336 162 165 68 330 298 303 300 51 360 309 273 278 292 302 318
71 96 276 273 266 130 206 146 135 145 142 150 160 155 168 179 190 196 210 214 214 238 258 211 282 237 139 142 272 264 152 234 282 14 304 147 123 281 275 306 313 25 339 288 275 341 5 343 329
209 199 209 221 227 147 217 117 156 160 160 164 174 166 179 190 208 217 220 218 232 234 255 250 203 250 174 276 273 279 258 203 243 219 243 59 335 314 343 313 303 306 284 293 355 350 4 325 303
349 348 82 109 186 233 149 128 160 154 158 173 181 182 185 193 201 211 213 216 214 223 241 227 234 253 288 278 264 262 343 317 237 239 90 34 4 308 235 253 287 256 296 308 360 333 324 298 288
309 11 52 329 269 260 124 161 158 150 169 198 176 179 194 202 199 196 202 219 202 221 219 206 226 235 242 261 303 344 359 300 296 98 80 56 267 263 308 246 291 357 285 284 292 314 314 281 309
3 359 114 229 248 231 292 145 161 143 176 186 187 179 205 199 168 187 204 205 212 220 199 208 234 237 244 248 243 226 257 282 272 339 23 301 295 288 276 269 273 321 305 295 305 324 294 308 321
35 291 282 288 313 229 131 110 130 204 174 183 150 143 190 208 171 218 200 207 254 240 217 217 214 240 241 245 278 245 233 289 77 261 254 249 257 282 310 307 304 248 271 281 352 302 289 321 308
263 315 336 321 313 305 173 302 41 7 119 105 95 172 194 43 96 124 106 52 310 269 323 268 252 305 275 292 280 257 252 278 264 250 271 280 269 284 275 281 303 283 285 286 307 306 314 306 289
320 339 307 288 285 292 147 47 45 259 142 141 109 90 94 115 122 128 119 132 134 161 195 190 134 202 158 227 246 255 243 340 277 235 281 294 265 241 241 244 273 269 280 325 282 291 284 258 266
314 303 300 287 250 274 144 142 186 189 159 120 102 76 51 35 66 57 118 154 226 313 298 163 156 170 182 216 242 228 259 265 278 294 305 296 284 214 239 244 259 273 276 283 290 283 278 276 268
292 304 315 320 314 284 177 157 183 156 85 94 105 91 83 79 70 62 49 354 40 113 231 241 218 188 206 228 229 229 207 222 251 257 251 248 279 298 238 238 243 258 265 264 265 275 278 279 262
302 311 315 307 309 323 281 81 140 37 125 120 124 96 74 56 47 23 16 5 7 0 358 8 6 358 265 222 275 295 91 353 281 250 267 299 336 294 246 271 257 262 272 269 279 265 259 291 256
329 305 340 304 288 276 107 101 174 161 143 170 109 82 75 44 42 31 348 352 336 333 322 5 356 338 337 327 0 103 236 211 259 319 26 312 320 285 283 254 268 301 250 258 260 287 292 292 273
196 316 311 300 297 297 175 138 155 207 166 105 91 70 56 37 344 360 350 12 15 13 351 14 360 343 333 293 301 305 238 261 277 263 223 230 281 283 271 303 294 282 274 249 272 288 320 312 305
322 320 331 340 290 299 351 97 153 139 97 75 64 42 16 344 357 9 9 357 354 343 340 349 0 341 337 31 6 351 315 279 260 253 229 227 208 247 260 263 249 253 282 242 257 265 311 302 286
346 337 345 317 317 322 305 90 89 83 70 33 77 24 351 337 359 11 354 345 3 349 346 356 357 339 346 347 342 4 346 328 303 279 266 263 264 267 229 274 268 267 243 253 256 293 317 322 332